Location: Home
(42.5358°N, 72.7383°W)
Time: 17:44:11
(UTC-04:00)

Explorer 11/Cluster Stage 4 - Pass Details

Date: 08 August 2024
Orbit: 464 x 1208 km, 28.8° (Epoch: 19 September)

Event Time Altitude Azimuth Distance (km) Brightness Sun altitude
Rises 23:50:33 0° 220° (SW) 3,375 - -29.8°
Reaches altitude 10° 23:53:44 10° 202° (SSW) 2,586 - -30.0°
Maximum altitude 23:57:55 18° 160° (SSE) 2,205 - -30.2°
Drops below altitude 10° 00:02:34 10° 120° (ESE) 2,924 - -30.4°
Sets 00:06:27 0° 104° (ESE) 3,990 - -30.6°
